Back to catalog

STARLINK-37272

AliveCommunicationsVLEO
NORAD 68726·PAYLOAD·🇺🇸 United States

Launched Apr 14, 2026 from Cape Canaveral Space Force Station

Loading…

Next Passes (next 24 hours)

TLE

FreshSource: CelesTrak SupGP

Epoch: Sep 14, 2026, 22:58 UTC

1 68726C 26081AD  26257.95743056  .00014305  00000+0  42247-3 0  2578
2 68726  53.1580 231.3625 0001427  99.7464 170.4674 15.34396325    19

Track STARLINK-37272 in real time with AllMySat

Download on the App Store